Overview Statistics Trail Chart Weather Telemetry Raw packets
 

This is the latest recevied weather packets stored in our database for station/object MB7UUE. If no packets are shown the sender has not sent any weather packets the latest 10 day(s).

<< 41 42 43 44 45 46 >>
Time Temp. Humidity Pressure Rain* Wind** Luminosity Snow
1787900637 17.22° C 84% 1005.6 hPa 0 mm - - -
1787899506 16.67° C 86% 1005.7 hPa 0 mm - - -
1787899498 16.67° C 86% 1005.7 hPa 0 mm - - -
1787898367 16.11° C 88% 1005.5 hPa 0 mm - - -
1787898357 16.11° C 88% 1005.5 hPa 0 mm - - -
1787897227 16.11° C 88% 1005.6 hPa 0 mm - - -
1787897217 16.11° C 88% 1005.6 hPa 0 mm - - -
1787896087 15.56° C 88% 1005.9 hPa 0 mm - - -
1787896077 15.56° C 88% 1005.9 hPa 0 mm - - -
1787894946 15.56° C 87% 1005.7 hPa 0 mm - - -
1787894938 15.56° C 87% 1005.6 hPa 0 mm - - -
1787893807 16.11° C 87% 1006 hPa 0 mm - - -
1787893797 16.11° C 87% 1006 hPa 0 mm - - -
1787892668 16.11° C 86% 1005.9 hPa 0 mm - - -
1787892658 16.11° C 86% 1005.9 hPa 0 mm - - -
1787891528 16.11° C 85% 1006 hPa 0 mm - - -
1787891518 16.11° C 85% 1006 hPa 0 mm - - -
1787890387 16.11° C 85% 1006.1 hPa 0 mm - - -
1787890379 16.11° C 85% 1006.1 hPa 0 mm - - -
1787889247 16.67° C 82% 1006.1 hPa 0 mm - - -
1787889239 16.67° C 82% 1006.1 hPa 0 mm - - -
1787888108 16.67° C 81% 1006.2 hPa 0 mm - - -
1787888097 16.67° C 81% 1006.2 hPa 0 mm - - -
1787886966 16.67° C 80% 1006.2 hPa 0 mm - - -
1787886958 16.67° C 80% 1006.2 hPa 0 mm - - -

* Rain latest hour (hover to see other rain measurements)
** Current wind speed in m/s (hover to see current wind gust speed)